St. Charles, IL

12:43 AM CST on January 24, 2018 (GMT -0600)
Saint Charles County Smartt

Weather History for KSET - August, 2014

Change the Weather History Date:

Friday, August 1, 2014

  Actual Average (KSTL) Record (KSTL)
Temperature  
Mean Temperature 70 °F -  
Max Temperature 82 °F 86 °F 104 °F (1980)
Min Temperature 61 °F 67 °F 57 °F (1962)
Cooling Degree Days 6    
Growing Degree Days 20 (Base 50)    
Moisture  
Dew Point 64 °F    
Average Humidity 83    
Maximum Humidity 97    
Minimum Humidity 60    
Precipitation  
Precipitation 0.00 in - - ()
Sea Level Pressure  
Sea Level Pressure 30.06 in    
Wind  
Wind Speed 1 mph (North)    
Max Wind Speed 8 mph    
Max Gust Speed -    
Visibility 8 miles    
Events Fog , Thunderstorm    
Averages and records for this station are not official NWS values.
T = Trace of Precipitation, MM = Missing Value Source: NWS Daily Summary

Daily Weather History Graph

Daily Weather History Graph

Search for Another Location

Airport or City:

Trip Planner

Search our weather history database for the weather conditions in past years. The results will help you decide how hot, cold, wet, or windy it might be!

Date:

Astronomy

Aug. 01, 2014 Rise Set
Actual Time 6:02 AM CDT 8:12 PM CDT
Civil Twilight 5:32 AM CDT 8:42 PM CDT
Nautical Twilight 4:56 AM CDT 9:18 PM CDT
Astronomical Twilight 4:16 AM CDT 9:58 PM CDT
Moon 11:23 AM CDT (8/1) 11:01 PM CDT (8/1)
Length of Visible Light 15h 09m
Length of Day
14h 10m
Waxing Crescent, 28% of the Moon is Illuminated
Aug 1
Waxing Crescent
Aug 3
First Quarter
Aug 10
Full
Aug 17
Last Quarter
Aug 25
New

Hourly Weather History & Observations

Time (CDT) Temp. Heat Index Dew Point Humidity Pressure Visibility Wind Dir Wind Speed Gust Speed Precip Events Conditions
12:54 AM 66.0 °F - 63.0 °F 90% 30.05 in 10.0 mi Calm Calm - N/A   Clear
1:54 AM 64.9 °F - 63.0 °F 93% 30.04 in 8.0 mi Calm Calm - N/A   Clear
2:51 AM 64.4 °F - 60.8 °F 88% 30.05 in 10.0 mi Calm Calm - N/A   Partly Cloudy
3:11 AM 64.0 °F - 61.0 °F 90% 30.05 in 10.0 mi Calm Calm - N/A   Partly Cloudy
3:54 AM 64.0 °F - 61.0 °F 90% 30.04 in 9.0 mi Calm Calm - N/A   Partly Cloudy
4:54 AM 64.0 °F - 62.1 °F 93% 30.05 in 10.0 mi Calm Calm - N/A   Mostly Cloudy
5:30 AM 61.0 °F - 59.0 °F 93% 30.07 in 1.8 mi Calm Calm - N/A   Partly Cloudy
5:47 AM 62.1 °F - 60.1 °F 93% 30.07 in 3.0 mi Calm Calm - N/A   Partly Cloudy
5:54 AM 62.1 °F - 60.1 °F 93% 30.06 in 7.0 mi Calm Calm - N/A   Scattered Clouds
6:48 AM 62.6 °F - 60.8 °F 94% 30.07 in 1.2 mi Calm Calm - N/A   Scattered Clouds
6:54 AM 62.1 °F - 61.0 °F 96% 30.06 in 0.5 mi Calm Calm - N/A Fog Fog
7:01 AM 63.0 °F - 62.1 °F 97% 30.08 in 2.5 mi Calm Calm - N/A   Scattered Clouds
7:08 AM 64.0 °F - 62.1 °F 93% 30.08 in 5.0 mi Calm Calm - N/A   Scattered Clouds
7:54 AM 68.0 °F - 64.9 °F 90% 30.07 in 6.0 mi Calm Calm - N/A   Clear
8:54 AM 72.0 °F - 66.0 °F 81% 30.07 in 10.0 mi Variable 3.5 mph - N/A   Clear
9:54 AM 75.9 °F - 66.9 °F 74% 30.07 in 10.0 mi Variable 3.5 mph - N/A   Clear
10:54 AM 80.1 °F 81.9 °F 64.9 °F 60% 30.07 in 10.0 mi West 4.6 mph - N/A   Clear
1:54 PM 79.0 °F - 64.9 °F 62% 30.05 in 10.0 mi Calm Calm - N/A   Mostly Cloudy
2:54 PM 75.0 °F - 68.0 °F 79% 30.06 in 9.0 mi WNW 8.1 mph - N/A   Overcast
3:50 PM 78.8 °F - 66.2 °F 65% 30.05 in 10.0 mi NW 8.1 mph - N/A Thunderstorm Clear
3:54 PM 78.1 °F - 66.9 °F 68% 30.04 in 10.0 mi NW 6.9 mph - N/A Thunderstorm Clear
4:30 PM 79.0 °F - 66.0 °F 64% 30.05 in 10.0 mi Calm Calm - N/A   Mostly Cloudy
4:37 PM 79.0 °F - 66.0 °F 64% 30.05 in 10.0 mi Calm Calm - N/A Thunderstorm Mostly Cloudy
4:52 PM 78.8 °F - 66.2 °F 65% 30.05 in 10.0 mi NE 5.8 mph - N/A   Scattered Clouds
5:54 PM 75.0 °F - 63.0 °F 66% 30.06 in 10.0 mi NE 4.6 mph - N/A   Mostly Cloudy
6:54 PM 72.0 °F - 66.0 °F 81% 30.06 in 8.0 mi Calm Calm - N/A   Mostly Cloudy
7:54 PM 71.1 °F - 66.9 °F 87% 30.05 in 9.0 mi East 6.9 mph - N/A   Clear
8:54 PM 70.0 °F - 64.9 °F 84% 30.06 in 10.0 mi North - - N/A   Partly Cloudy
9:54 PM 66.9 °F - 63.0 °F 87% 30.08 in 9.0 mi East 5.8 mph - N/A   Clear
10:54 PM 66.0 °F - 63.0 °F 90% 30.08 in 9.0 mi Calm Calm - N/A   Clear
11:54 PM 64.0 °F - 62.1 °F 93% 30.08 in 7.0 mi Calm Calm - N/A   Clear